sat.trackr.live / text

‹ back to catalog

STARLINK-32129

NORAD 60157 · 2024-120Y

PAYLOAD ACTIVE UNKNOWN

§ Identity

Operator
Country
US
Launch date
2024-06-27
Launch site
AFETR
Launch vehicle
Mass (kg)
RCS (m²)

Purposes: comms

External: N2YO · Heavens-Above · Gunter

§ Orbital elements

Epoch: 2026-05-24T21:43:49.389600Z

Period
93.85 min
Inclination
53.1609°
Eccentricity
0.0000980
Mean motion
15.34396029 rev/d
Perigee alt
462.0 km
Apogee alt
463.4 km
Semi-major
6,840.9 km
B*
1.9576e-4
RAAN
326.0159°
Arg perigee
93.3847°
Mean anomaly
266.7268°
Rev number
10,812

§ Raw data

STARLINK-321291 60157U 24120Y   26144.90543275  .00006243  00000+0  19576-3 0  99952 60157  53.1609 326.0159 0000980  93.3847 266.7268 15.34396029108123

JSON: /api/v1/satellites/60157 · /tle

For live sub-satellite position, see the globe view (requires WebGL).

§ Visibility from observer

Set your observer location to see the next 7 days of passes ≥ 10°. The values pass through the URL so the page stays shareable.

No JS? Fill the form by hand. The geolocation button needs JavaScript.